Theta_e
353 351 351 352 352 352 352 351 351 350 350 350 350 350 350 349 348 348 348 347 349 349 350 350 351 350 344 346 342 343 349 344 343 348 352 346 344 348 351 348 346 351 350
351 352 351 352 352 349 350 351 352 351 352 351 351 351 351 350 351 348 348 347 348 350 350 352 352 352 347 350 351 347 348 351 352 352 351 350 353 352 350 348 348 350 350
350 351 353 352 353 351 353 353 354 353 353 353 348 352 351 351 350 344 348 349 350 350 351 350 350 351 351 351 352 350 345 347 348 348 345 347 348 353 350 345 346 350 349
351 351 352 351 352 352 352 353 353 353 353 353 353 352 351 352 352 349 348 351 350 351 350 348 349 351 352 352 353 354 350 346 345 345 332 336 344 352 352 351 352 351 350
350 352 352 351 351 351 353 353 352 353 352 353 353 353 354 354 354 353 352 353 351 350 351 350 350 353 353 353 352 350 346 338 342 340 336 338 345 348 351 343 347 349 350
349 354 349 351 353 353 354 353 354 354 353 351 352 353 353 354 354 354 354 352 353 352 348 347 346 349 353 352 353 350 343 339 347 348 343 340 346 345 351 348 352 351 345
355 353 351 350 352 353 353 355 349 351 353 352 352 353 353 353 354 353 353 353 351 353 351 351 349 349 352 351 349 350 344 344 349 348 345 343 343 342 350 352 350 349 346
352 350 351 348 349 352 352 354 350 347 350 352 354 353 354 354 352 351 354 353 351 352 352 352 352 352 352 352 353 351 343 345 350 344 346 349 337 332 344 350 346 343 342
347 350 349 348 350 355 355 352 352 346 348 352 353 354 354 354 355 354 351 352 353 352 351 351 351 351 350 351 352 353 350 346 346 334 342 350 342 339 338 345 344 344 340
346 347 346 347 348 352 356 354 354 353 354 349 350 349 354 351 348 349 348 351 353 353 353 352 348 345 351 346 351 351 351 351 346 346 340 347 345 337 333 343 349 348 339
345 345 346 346 347 349 353 350 355 354 354 352 353 349 345 351 349 346 352 349 352 350 350 350 351 350 349 350 351 351 350 346 346 347 346 345 344 342 337 341 348 346 343
344 343 346 348 347 348 355 347 352 353 348 347 349 350 351 348 349 348 352 348 339 339 344 343 347 349 350 348 348 345 350 345 340 344 342 339 344 342 338 340 346 345 342
343 343 346 348 347 347 352 349 352 355 353 351 351 353 351 349 342 347 339 347 338 342 339 344 343 349 350 348 347 346 338 340 343 342 346 344 343 339 334 338 343 345 342
343 343 343 346 349 347 348 348 350 351 349 351 350 349 347 345 347 342 344 346 345 343 344 343 345 350 348 347 344 344 340 346 342 345 345 344 342 342 344 337 340 343 345
343 343 344 347 347 351 349 351 347 346 349 346 352 351 348 347 343 346 347 345 344 344 345 343 344 344 344 346 347 347 347 348 347 347 344 344 345 341 334 340 341 339 342
343 344 344 350 350 351 351 352 353 349 346 347 349 348 347 348 346 347 347 346 346 346 345 345 345 344 344 344 344 346 347 348 347 347 343 345 346 344 339 338 339 339 340
344 344 345 347 352 352 353 354 355 351 350 349 350 352 349 344 346 348 349 348 347 349 349 347 346 347 347 346 347 346 345 346 346 344 344 341 344 341 339 337 342 339 337
345 346 346 346 348 354 354 354 356 354 352 351 351 350 351 349 338 344 344 344 344 346 347 347 348 347 348 348 346 346 346 347 347 345 344 341 341 341 340 340 339 339 344
346 347 348 347 348 351 354 355 355 355 353 352 351 351 351 354 351 353 350 348 350 349 350 348 349 347 347 347 349 347 348 348 347 347 347 345 344 343 342 341 341 343 340
347 348 349 350 351 353 354 355 355 355 354 353 353 353 353 355 351 351 350 345 350 351 350 351 349 349 347 346 347 345 346 346 346 347 348 348 346 343 342 345 342 343 341
346 351 351 353 354 355 356 357 357 357 355 354 354 355 356 358 357 353 347 350 351 352 350 353 351 352 352 350 348 346 346 346 346 343 347 348 346 344 341 346 345 344 342
348 349 354 355 357 358 359 359 358 358 358 357 356 355 355 356 358 357 353 354 354 354 354 353 353 353 351 351 348 350 352 349 349 348 348 348 347 345 343 347 347 344 340
349 353 354 355 358 359 360 360 359 358 357 358 357 356 356 356 354 354 353 353 353 353 353 353 352 352 352 351 350 349 352 353 349 346 346 345 346 346 344 345 346 346 345
349 351 351 357 357 361 362 360 361 360 359 357 357 357 355 354 354 353 351 350 352 353 354 352 353 350 352 352 350 349 349 347 351 352 345 342 342 342 343 346 345 347 345
347 350 351 355 360 359 361 361 361 359 358 358 356 354 353 349 350 347 349 352 353 354 354 354 354 354 353 352 351 350 349 347 347 347 351 349 344 344 341 343 345 345 345
347 348 351 357 359 358 363 362 359 364 360 356 354 352 348 347 347 350 350 350 349 353 353 353 352 352 351 350 350 349 348 347 349 348 350 349 347 342 340 341 339 344 342
Wind_Speed
19 17 18 17 17 16 16 14 15 14 14 15 15 14 14 13 13 12 10 10 10 10 10 9 8 8 8 8 9 12 12 11 12 13 12 14 15 16 14 16 13 15 16
23 20 21 19 18 17 16 14 13 12 12 12 12 12 12 11 11 10 9 8 9 9 9 9 7 7 6 7 9 10 10 9 10 13 12 10 12 12 14 11 15 15 15
24 22 19 19 18 16 15 14 14 12 11 11 10 10 9 10 10 11 10 9 9 10 10 8 7 8 8 8 9 9 9 8 10 12 10 9 4 11 15 13 14 15 14
25 21 19 19 18 16 14 13 13 12 12 11 10 8 9 9 8 9 10 10 9 10 10 8 8 9 9 9 9 9 8 7 13 13 12 6 2 7 11 13 13 14 14
23 24 21 18 17 16 14 13 13 12 12 11 10 8 9 8 8 9 9 9 9 10 9 8 8 8 8 9 9 8 7 7 12 17 16 13 12 7 10 10 13 14 12
28 25 22 20 17 16 14 13 13 12 11 11 10 7 8 9 9 11 9 9 8 8 9 8 8 9 8 8 8 7 6 9 6 9 16 15 14 14 11 12 13 13 12
29 25 22 20 18 15 14 12 11 11 11 10 10 10 10 11 10 10 10 9 8 9 9 8 8 8 8 7 6 7 7 6 2 7 20 18 18 17 13 12 11 11 10
28 25 22 19 17 15 13 12 10 11 11 11 10 10 10 11 10 9 9 8 7 7 8 7 7 7 6 7 6 6 8 7 0 2 3 16 15 13 14 12 11 10 9
26 23 20 17 15 14 12 11 10 10 10 10 9 10 9 9 9 9 8 7 6 6 6 5 5 5 5 5 6 7 8 7 1 8 15 13 12 12 12 10 9 9 9
26 20 19 18 15 13 12 11 11 10 9 8 8 7 7 7 7 7 7 7 7 6 6 6 6 6 6 6 8 9 8 10 8 13 12 14 11 8 8 10 8 8 9
26 21 22 21 18 15 15 12 12 10 10 10 8 8 7 6 6 6 6 8 6 7 7 8 8 8 9 10 11 12 12 10 13 17 8 7 11 8 7 9 10 10 8
21 18 24 25 19 14 16 13 11 10 10 9 7 8 8 6 3 5 6 6 7 7 9 10 11 11 12 10 14 13 15 15 15 6 15 19 20 11 9 11 12 11 10
16 17 17 21 21 16 17 10 16 18 17 15 12 6 8 8 4 9 8 9 9 9 10 11 14 14 13 8 13 17 15 23 24 12 4 18 14 10 9 12 12 13 13
17 16 15 14 17 15 17 11 13 7 6 9 13 15 8 6 9 7 9 12 12 10 11 10 16 18 13 16 19 26 15 22 12 8 5 9 11 4 7 11 15 16 16
17 16 17 16 13 2 7 1 7 7 6 4 11 7 12 9 9 9 9 10 12 12 10 11 10 15 14 11 14 18 17 15 15 11 4 6 7 15 17 14 17 19 20
19 17 15 19 16 11 8 7 4 7 8 9 9 9 15 10 11 11 10 12 14 15 16 13 14 14 13 17 18 17 15 17 16 13 12 11 12 9 17 24 21 22 25
16 18 16 17 16 16 13 10 8 11 12 12 12 12 15 17 13 12 13 16 17 15 12 14 15 14 16 17 17 18 19 18 21 24 20 15 16 18 18 22 22 22 28
16 19 16 15 19 17 16 14 13 12 14 12 13 12 16 17 19 19 19 17 18 18 16 15 16 14 15 15 15 17 18 19 20 20 22 22 18 22 22 20 24 27 26
18 19 15 15 15 19 17 14 12 12 16 16 16 18 20 17 15 16 16 12 9 14 15 17 15 16 16 14 13 15 11 12 16 19 21 23 24 24 25 22 26 26 27
22 22 18 16 12 14 15 14 13 14 15 15 14 15 20 18 16 19 21 15 11 10 12 13 16 15 15 14 13 17 17 19 21 22 25 22 22 26 22 22 22 23 25
23 25 24 19 21 18 14 14 16 17 17 16 15 11 10 11 14 18 18 18 14 16 12 15 13 13 12 12 14 13 20 22 23 24 26 23 23 23 24 25 21 22 18
27 26 24 21 17 20 17 17 16 13 11 7 12 14 13 15 15 16 14 14 13 13 11 12 11 12 13 8 7 5 2 3 4 10 17 20 20 18 20 19 20 23 29
26 28 26 26 20 22 18 16 14 18 16 10 8 12 12 16 19 18 18 15 12 11 12 12 12 13 11 9 11 7 2 2 2 3 7 7 8 12 16 21 20 21 21
21 27 24 22 23 19 19 18 17 13 12 14 18 8 6 9 12 16 14 11 15 11 11 11 10 12 10 11 6 14 13 4 2 2 4 4 6 7 6 8 14 18 22
24 25 28 27 23 21 21 21 15 13 12 14 3 4 4 10 10 9 4 6 8 8 9 7 8 9 9 12 8 7 7 9 10 7 3 2 6 8 8 4 3 9 13
24 24 25 29 28 24 18 20 20 9 11 3 2 2 6 5 5 2 2 4 8 9 9 7 7 9 9 8 8 7 8 5 2 4 2 4 1 5 8 7 4 6 12
Wind_Direction
141 139 133 132 130 127 123 123 121 119 117 110 106 106 102 103 101 107 113 120 130 138 135 129 129 126 120 113 126 118 111 121 124 112 104 102 109 111 113 115 115 102 104
139 137 138 137 132 127 127 126 123 122 120 117 113 112 109 106 107 108 112 125 137 141 140 143 147 141 133 123 133 128 128 131 122 105 97 93 112 105 110 113 121 112 113
139 137 137 136 131 129 124 124 119 118 135 128 117 117 113 108 115 116 107 116 134 141 144 144 153 155 145 140 137 142 150 151 128 103 111 116 121 114 119 128 116 118 119
137 139 137 136 132 128 126 124 124 124 125 127 124 121 114 113 116 116 107 115 131 142 147 145 147 145 150 148 142 143 151 144 118 126 121 210 68 133 122 122 124 128 127
143 143 145 140 134 132 129 128 127 129 127 127 123 125 115 114 119 132 123 122 131 148 152 159 159 155 155 153 153 152 160 153 150 140 101 174 152 156 127 131 128 128 122
141 135 147 144 136 135 134 137 135 134 135 129 128 124 126 116 111 126 120 123 129 141 155 157 166 169 164 162 172 168 169 170 171 192 146 112 155 143 136 146 128 130 129
127 136 143 146 143 141 141 143 136 143 137 138 139 123 121 123 120 121 118 126 125 130 143 157 155 165 172 184 193 191 192 175 351 138 157 144 164 147 150 147 138 132 128
129 136 143 151 150 148 148 148 142 145 146 138 135 128 129 128 123 121 125 132 136 141 149 153 159 168 188 202 211 216 212 202 203 218 114 139 136 144 149 150 144 139 135
134 136 149 154 157 155 158 153 148 140 146 151 143 135 133 135 136 138 142 148 151 153 153 165 181 191 210 223 223 228 228 240 104 158 224 180 157 153 150 158 148 150 152
136 144 156 158 160 163 166 167 163 160 157 152 151 146 147 146 150 152 157 168 169 168 189 204 211 211 211 233 233 236 245 268 240 238 244 186 171 153 153 166 169 170 169
145 152 163 160 160 172 167 169 163 166 165 166 166 171 164 175 159 183 197 195 201 202 213 224 228 229 229 229 236 243 242 241 254 243 221 207 202 186 184 183 194 196 189
151 166 165 152 155 172 171 169 172 181 182 170 178 186 178 195 185 179 206 225 225 240 240 240 245 238 241 241 250 241 253 259 247 256 195 229 214 197 192 203 206 206 203
172 163 161 162 152 166 167 167 191 197 193 171 183 183 202 211 222 225 244 248 245 271 252 260 260 238 232 239 226 231 262 262 259 260 105 198 207 196 198 217 216 222 217
176 164 174 160 161 170 164 179 197 181 216 207 187 196 194 209 245 247 242 241 231 268 276 279 263 242 235 245 257 259 237 226 272 289 164 212 205 217 279 239 221 227 228
172 174 170 164 190 182 209 79 211 202 199 190 170 195 198 209 236 252 238 249 255 274 275 285 295 275 263 257 236 246 253 236 236 246 272 199 227 231 252 246 253 243 235
171 175 178 156 177 194 206 227 194 184 237 209 210 224 196 212 244 238 248 250 254 259 274 273 275 278 271 274 271 255 270 251 230 235 248 208 194 223 254 236 255 245 244
166 165 176 169 175 191 205 217 227 217 229 239 244 206 219 222 232 238 252 265 260 267 266 264 267 267 273 267 264 258 261 258 241 263 255 237 234 247 250 261 242 242 245
175 162 172 194 181 189 200 208 223 217 223 230 226 224 240 240 239 240 251 260 270 269 271 265 263 264 270 274 268 273 269 270 265 264 246 253 253 254 251 247 247 237 242
170 157 180 192 191 189 192 202 219 246 232 235 238 233 233 241 236 236 244 268 278 264 261 255 264 259 267 273 278 292 288 284 278 258 257 255 245 254 254 246 242 233 246
167 168 182 188 207 173 189 205 228 237 238 238 232 241 223 239 240 236 246 259 269 261 269 257 256 261 260 260 263 274 279 269 264 257 258 256 254 251 255 249 233 238 246
177 174 181 197 197 194 206 205 218 238 244 229 244 264 229 238 261 252 255 265 263 266 247 249 254 254 261 249 251 277 270 269 266 265 256 256 250 254 242 246 224 216 247
178 184 183 190 195 194 205 218 227 234 254 239 217 242 248 249 254 267 267 256 257 257 254 255 261 257 261 240 224 232 269 305 286 271 251 256 254 252 256 247 242 235 230
182 180 184 191 199 202 211 223 227 249 270 277 266 260 247 249 266 260 261 261 270 267 260 261 263 261 263 245 227 224 291 230 316 263 268 268 258 262 264 261 260 248 247
193 180 188 192 196 204 207 226 220 218 234 247 241 231 256 276 290 293 287 270 271 269 269 272 269 270 261 268 228 242 251 232 269 323 247 255 303 308 314 300 258 258 234
192 186 186 193 194 203 203 212 232 217 251 260 154 90 332 307 299 311 243 259 273 285 293 295 290 276 270 277 260 268 230 233 240 235 291 303 314 321 301 338 328 238 226
194 191 186 187 189 194 199 213 226 257 230 326 137 325 293 292 306 206 252 286 296 305 300 301 310 307 305 296 290 260 246 277 260 249 249 270 333 318 340 293 322 246 289